| time (UTC) | temp F | wind direction | speed knots | gust knots | rain 1hr in | rain 24hr in | rain mn in | humidity % | barometer mb |
| 20260503053004 | 79 | 244 | 0.0 | 6.1 | 0.00 | 0.00 | 0.00 | 82 | 1013.9 |
| 20260503052504 | 79 | 244 | 0.9 | 7.0 | 0.00 | 0.00 | 0.00 | 81 | 1014.0 |
| 20260503052007 | 80 | 244 | 1.7 | 7.0 | 0.00 | 0.00 | 0.00 | 81 | 1014.1 |
| 20260503051506 | 80 | 245 | 1.7 | 6.1 | 0.00 | 0.00 | 0.00 | 81 | 1014.1 |
| 20260503051003 | 80 | 245 | 0.0 | 6.1 | 0.00 | 0.00 | 0.00 | 81 | 1014.2 |
| 20260503050507 | 80 | 245 | 0.9 | 4.3 | 0.00 | 0.00 | 0.00 | 81 | 1014.2 |
| 20260503050015 | 80 | 245 | 0.9 | 6.1 | 0.00 | 0.00 | 0.00 | 81 | 1014.2 |
| 20260503045509 | 80 | 245 | 2.6 | 6.1 | 0.00 | 0.00 | 0.00 | 80 | 1014.2 |
| 20260503045004 | 80 | 244 | 2.6 | 7.0 | 0.00 | 0.00 | 0.00 | 80 | 1014.3 |
| 20260503044516 | 80 | 244 | 1.7 | 7.0 | 0.00 | 0.00 | 0.00 | 80 | 1014.2 |
| 20260503044007 | 80 | 244 | 1.7 | 6.1 | 0.00 | 0.00 | 0.00 | 80 | 1014.3 |
| 20260503043506 | 80 | 244 | 2.6 | 7.0 | 0.00 | 0.00 | 0.00 | 80 | 1014.2 |
| 20260503043022 | 80 | 243 | 0.9 | 7.0 | 0.00 | 0.00 | 0.00 | 79 | 1014.2 |
| 20260503042508 | 80 | 243 | 3.5 | 7.0 | 0.00 | 0.00 | 0.00 | 79 | 1014.3 |
| 20260503042011 | 80 | 244 | 3.5 | 7.0 | 0.00 | 0.00 | 0.00 | 79 | 1014.3 |
| 20260503041506 | 80 | 244 | 2.6 | 7.8 | 0.00 | 0.00 | 0.00 | 79 | 1014.3 |
| 20260503041005 | 81 | 246 | 4.3 | 7.8 | 0.00 | 0.00 | 0.00 | 79 | 1014.3 |
| 20260503040511 | 81 | 250 | 3.5 | 8.7 | 0.00 | 0.00 | 0.00 | 78 | 1014.4 |
| 20260503040011 | 81 | 249 | 3.5 | 8.7 | 0.00 | 0.00 | 0.00 | 78 | 1014.3 |
| 20260503035506 | 81 | 254 | 2.6 | 7.0 | 0.00 | 0.00 | 0.00 | 78 | 1014.3 |
| 20260503035009 | 81 | 246 | 2.6 | 7.0 | 0.00 | 0.00 | 0.00 | 78 | 1014.2 |
| 20260503034514 | 81 | 244 | 2.6 | 7.8 | 0.00 | 0.00 | 0.00 | 77 | 1014.2 |
| 20260503034006 | 81 | 244 | 3.5 | 7.8 | 0.00 | 0.00 | 0.00 | 77 | 1014.1 |
| 20260503033505 | 81 | 243 | 0.9 | 7.8 | 0.00 | 0.00 | 0.00 | 77 | 1014.1 |
| 20260503033025 | 81 | 243 | 3.5 | 7.8 | 0.00 | 0.00 | 0.00 | 76 | 1013.9 |
| 20260503032506 | 81 | 244 | 1.7 | 6.1 | 0.00 | 0.00 | 0.00 | 76 | 1013.7 |
| 20260503032008 | 81 | 243 | 2.6 | 6.1 | 0.00 | 0.00 | 0.00 | 76 | 1013.6 |
| 20260503031524 | 81 | 244 | 0.9 | 7.0 | 0.00 | 0.00 | 0.00 | 75 | 1013.6 |
| 20260503031009 | 81 | 244 | 2.6 | 8.7 | 0.00 | 0.00 | 0.00 | 75 | 1013.7 |
| 20260503030512 | 81 | 246 | 5.2 | 9.6 | 0.00 | 0.00 | 0.00 | 75 | 1013.7 |
| 20260503030007 | 81 | 261 | 1.7 | 9.6 | 0.00 | 0.00 | 0.00 | 75 | 1013.7 |
| 20260503025502 | 82 | 268 | 3.5 | 9.6 | 0.00 | 0.00 | 0.00 | 74 | 1013.7 |
| 20260503025005 | 82 | 256 | 1.7 | 8.7 | 0.00 | 0.00 | 0.00 | 74 | 1013.5 |
| 20260503024513 | 82 | 254 | 4.3 | 8.7 | 0.00 | 0.00 | 0.00 | 74 | 1013.6 |
| 20260503024006 | 82 | 249 | 3.5 | 7.8 | 0.00 | 0.00 | 0.00 | 73 | 1013.5 |
| 20260503023507 | 82 | 252 | 3.5 | 7.8 | 0.00 | 0.00 | 0.00 | 73 | 1013.6 |
| 20260503023016 | 82 | 240 | 3.5 | 8.7 | 0.00 | 0.00 | 0.00 | 73 | 1013.6 |
| 20260503022505 | 82 | 244 | 2.6 | 8.7 | 0.00 | 0.00 | 0.00 | 72 | 1013.6 |
| 20260503022006 | 82 | 250 | 3.5 | 7.8 | 0.00 | 0.00 | 0.00 | 72 | 1013.6 |
| 20260503021520 | 82 | 247 | 1.7 | 7.8 | 0.00 | 0.00 | 0.00 | 71 | 1013.5 |
| 20260503021007 | 82 | 248 | 3.5 | 7.8 | 0.00 | 0.00 | 0.00 | 71 | 1013.5 |
| 20260503020506 | 83 | 246 | 4.3 | 8.7 | 0.00 | 0.00 | 0.00 | 70 | 1013.4 |
| 20260503020027 | 83 | 236 | 2.6 | 10.4 | 0.00 | 0.00 | 0.00 | 69 | 1013.4 |
| 20260503015508 | 83 | 239 | 6.1 | 10.4 | 0.00 | 0.00 | 0.00 | 69 | 1013.5 |
| 20260503015010 | 83 | 246 | 4.3 | 10.4 | 0.00 | 0.00 | 0.00 | 68 | 1013.5 |
| 20260503014527 | 83 | 251 | 2.6 | 8.7 | 0.00 | 0.00 | 0.00 | 67 | 1013.4 |
| 20260503014004 | 83 | 245 | 5.2 | 10.4 | 0.00 | 0.00 | 0.00 | 67 | 1013.5 |
| 20260503013504 | 84 | 239 | 4.3 | 10.4 | 0.00 | 0.00 | 0.00 | 66 | 1013.5 |
| 20260503013018 | 84 | 241 | 4.3 | 10.4 | 0.00 | 0.00 | 0.00 | 65 | 1013.5 |
| 20260503012506 | 84 | 246 | 4.3 | 10.4 | 0.00 | 0.00 | 0.00 | 64 | 1013.4 |
| 20260503012007 | 84 | 246 | 4.3 | 12.2 | 0.00 | 0.00 | 0.00 | 64 | 1013.3 |
| 20260503011520 | 84 | 259 | 5.2 | 12.2 | 0.00 | 0.00 | 0.00 | 63 | 1013.2 |
| 20260503011007 | 84 | 263 | 6.1 | 12.2 | 0.00 | 0.00 | 0.00 | 62 | 1013.2 |
| 20260503010509 | 84 | 251 | 4.3 | 11.3 | 0.00 | 0.00 | 0.00 | 61 | 1013.0 |
| 20260503010025 | 85 | 252 | 4.3 | 8.7 | 0.00 | 0.00 | 0.00 | 60 | 1013.0 |
| 20260503005508 | 85 | 250 | 5.2 | 8.7 | 0.00 | 0.00 | 0.00 | 60 | 1012.9 |
| 20260503005010 | 85 | 263 | 3.5 | 11.3 | 0.00 | 0.00 | 0.00 | 59 | 1012.9 |
| 20260503004551 | 85 | 246 | 7.0 | 11.3 | 0.00 | 0.00 | 0.00 | 59 | 1012.9 |
| 20260503004011 | 85 | 268 | 5.2 | 11.3 | 0.00 | 0.00 | 0.00 | 58 | 1012.9 |
| 20260503003507 | 85 | 253 | 7.8 | 11.3 | 0.00 | 0.00 | 0.00 | 57 | 1012.9 |
| 20260503003040 | 86 | 253 | 7.0 | 11.3 | 0.00 | 0.00 | 0.00 | 56 | 1012.8 |
| 20260503002504 | 86 | 259 | 7.0 | 11.3 | 0.00 | 0.00 | 0.00 | 56 | 1012.7 |
| 20260503002007 | 86 | 275 | 5.2 | 15.6 | 0.00 | 0.00 | 0.00 | 55 | 1012.5 |
| 20260503001538 | 86 | 259 | 5.2 | 15.6 | 0.00 | 0.00 | 0.00 | 54 | 1012.4 |
| 20260503001007 | 87 | 260 | 7.8 | 13.0 | 0.00 | 0.00 | 0.00 | 54 | 1012.4 |
| 20260503000506 | 87 | 261 | 8.7 | 13.0 | 0.00 | 0.00 | 0.00 | 53 | 1012.3 |
| 20260503000022 | 87 | 248 | 5.2 | 13.0 | 0.00 | 0.00 | 0.00 | 51 | 1012.1 |
| 20260502235510 | 88 | 252 | 5.2 | 15.6 | 0.00 | 0.00 | 0.00 | 50 | 1012.1 |
| 20260502235008 | 88 | 271 | 7.0 | 15.6 | 0.00 | 0.00 | 0.00 | 49 | 1012.0 |
| 20260502234527 | 88 | 255 | 8.7 | 13.9 | 0.00 | 0.00 | 0.00 | 48 | 1012.0 |
| 20260502234009 | 89 | 253 | 7.8 | 13.0 | 0.00 | 0.00 | 0.00 | 48 | 1011.9 |
| 20260502233507 | 89 | 249 | 7.8 | 13.0 | 0.00 | 0.00 | 0.00 | 47 | 1011.8 |
| 20260502233028 | 89 | 255 | 7.0 | 11.3 | 0.00 | 0.00 | 0.00 | 46 | 1011.7 |
| 20260502232507 | 90 | 255 | 4.3 | 11.3 | 0.00 | 0.00 | 0.00 | 45 | 1011.5 |
| 20260502232007 | 90 | 243 | 5.2 | 11.3 | 0.00 | 0.00 | 0.00 | 44 | 1011.4 |
| 20260502231526 | 90 | 267 | 6.1 | 11.3 | 0.00 | 0.00 | 0.00 | 43 | 1011.3 |
| 20260502231005 | 90 | 228 | 5.2 | 11.3 | 0.00 | 0.00 | 0.00 | 42 | 1011.2 |
| 20260502230507 | 91 | 246 | 6.1 | 9.6 | 0.00 | 0.00 | 0.00 | 41 | 1011.1 |
| 20260502230018 | 91 | 242 | 5.2 | 12.2 | 0.00 | 0.00 | 0.00 | 41 | 1011.1 |
| 20260502225507 | 91 | 245 | 6.1 | 12.2 | 0.00 | 0.00 | 0.00 | 40 | 1011.0 |
| 20260502225014 | 92 | 236 | 7.0 | 11.3 | 0.00 | 0.00 | 0.00 | 39 | 1010.9 |
| 20260502224522 | 92 | 237 | 7.0 | 13.0 | 0.00 | 0.00 | 0.00 | 40 | 1010.9 |
| 20260502224009 | 93 | 271 | 7.0 | 13.0 | 0.00 | 0.00 | 0.00 | 39 | 1010.8 |
| 20260502223510 | 93 | 259 | 7.0 | 9.6 | 0.00 | 0.00 | 0.00 | 39 | 1010.8 |
| 20260502223031 | 93 | 263 | 4.3 | 13.0 | 0.00 | 0.00 | 0.00 | 39 | 1010.8 |
| 20260502222508 | 93 | 231 | 6.1 | 13.9 | 0.00 | 0.00 | 0.00 | 39 | 1010.8 |
| 20260502222008 | 93 | 243 | 7.0 | 13.9 | 0.00 | 0.00 | 0.00 | 39 | 1010.8 |
| 20260502221528 | 93 | 242 | 7.8 | 13.0 | 0.00 | 0.00 | 0.00 | 38 | 1010.7 |
| 20260502221009 | 94 | 217 | 6.1 | 13.0 | 0.00 | 0.00 | 0.00 | 38 | 1010.7 |
| 20260502220508 | 94 | 225 | 7.0 | 13.0 | 0.00 | 0.00 | 0.00 | 39 | 1010.7 |
| 20260502220033 | 94 | 234 | 3.5 | 13.0 | 0.00 | 0.00 | 0.00 | 39 | 1010.8 |
| 20260502215512 | 94 | 216 | 7.0 | 14.8 | 0.00 | 0.00 | 0.00 | 39 | 1010.7 |
| 20260502215007 | 94 | 253 | 10.4 | 14.8 | 0.00 | 0.00 | 0.00 | 38 | 1010.7 |
| 20260502214522 | 94 | 234 | 8.7 | 14.8 | 0.00 | 0.00 | 0.00 | 38 | 1010.6 |
| 20260502214011 | 94 | 250 | 8.7 | 14.8 | 0.00 | 0.00 | 0.00 | 38 | 1010.6 |
| 20260502213511 | 95 | 245 | 7.8 | 13.9 | 0.00 | 0.00 | 0.00 | 37 | 1010.5 |
| 20260502213025 | 95 | 241 | 6.1 | 14.8 | 0.00 | 0.00 | 0.00 | 37 | 1010.5 |
| 20260502212512 | 95 | 241 | 7.0 | 14.8 | 0.00 | 0.00 | 0.00 | 36 | 1010.4 |
| 20260502212013 | 95 | 238 | 5.2 | 13.9 | 0.00 | 0.00 | 0.00 | 36 | 1010.3 |
| 20260502211528 | 95 | 246 | 7.8 | 14.8 | 0.00 | 0.00 | 0.00 | 36 | 1010.3 |
| 20260502211006 | 95 | 205 | 7.0 | 14.8 | 0.00 | 0.00 | 0.00 | 36 | 1010.3 |
| 20260502210510 | 95 | 263 | 6.1 | 14.8 | 0.00 | 0.00 | 0.00 | 36 | 1010.2 |
| 20260502210015 | 96 | 248 | 8.7 | 14.8 | 0.00 | 0.00 | 0.00 | 36 | 1010.2 |
| 20260502205506 | 95 | 254 | 7.0 | 14.8 | 0.00 | 0.00 | 0.00 | 37 | 1010.3 |
| 20260502205004 | 95 | 225 | 5.2 | 16.5 | 0.00 | 0.00 | 0.00 | 37 | 1010.4 |
| 20260502204509 | 96 | 260 | 7.8 | 16.5 | 0.00 | 0.00 | 0.00 | 36 | 1010.4 |
| 20260502204003 | 96 | 218 | 6.1 | 14.8 | 0.00 | 0.00 | 0.00 | 36 | 1010.4 |
| 20260502203504 | 95 | 235 | 6.1 | 14.8 | 0.00 | 0.00 | 0.00 | 36 | 1010.3 |
| 20260502203004 | 96 | 273 | 6.1 | 13.9 | 0.00 | 0.00 | 0.00 | 36 | 1010.2 |
| 20260502202504 | 96 | 247 | 5.2 | 16.5 | 0.00 | 0.00 | 0.00 | 38 | 1010.2 |
| 20260502202004 | 96 | 227 | 6.1 | 16.5 | 0.00 | 0.00 | 0.00 | 38 | 1010.2 |
| 20260502201509 | 96 | 227 | 7.0 | 20.0 | 0.00 | 0.00 | 0.00 | 37 | 1010.3 |
| 20260502201003 | 95 | 186 | 10.4 | 20.0 | 0.00 | 0.00 | 0.00 | 39 | 1010.5 |
| 20260502200503 | 95 | 281 | 9.6 | 17.4 | 0.00 | 0.00 | 0.00 | 36 | 1010.6 |
| 20260502200012 | 96 | 255 | 5.2 | 16.5 | 0.00 | 0.00 | 0.00 | 37 | 1010.7 |
| 20260502195505 | 95 | 204 | 5.2 | 16.5 | 0.00 | 0.00 | 0.00 | 38 | 1010.8 |
| 20260502195008 | 95 | 262 | 9.6 | 16.5 | 0.00 | 0.00 | 0.00 | 39 | 1010.7 |
| 20260502194523 | 95 | 215 | 7.8 | 16.5 | 0.00 | 0.00 | 0.00 | 40 | 1010.7 |
| 20260502194008 | 95 | 246 | 9.6 | 17.4 | 0.00 | 0.00 | 0.00 | 40 | 1010.7 |
| 20260502193506 | 95 | 227 | 7.8 | 18.2 | 0.00 | 0.00 | 0.00 | 41 | 1010.7 |
| 20260502193006 | 95 | 230 | 9.6 | 18.2 | 0.00 | 0.00 | 0.00 | 38 | 1010.8 |
| 20260502192502 | 95 | 243 | 7.0 | 15.6 | 0.00 | 0.00 | 0.00 | 41 | 1011.0 |
| 20260502192005 | 95 | 221 | 6.1 | 15.6 | 0.00 | 0.00 | 0.00 | 41 | 1011.0 |
| 20260502191504 | 95 | 234 | 7.0 | 15.6 | 0.00 | 0.00 | 0.00 | 43 | 1011.1 |
| 20260502191003 | 95 | 225 | 8.7 | 15.6 | 0.00 | 0.00 | 0.00 | 44 | 1011.0 |
| 20260502190503 | 95 | 222 | 3.5 | 17.4 | 0.00 | 0.00 | 0.00 | 42 | 1011.0 |
| 20260502190008 | 95 | 280 | 9.6 | 17.4 | 0.00 | 0.00 | 0.00 | 45 | 1011.0 |
| 20260502185507 | 95 | 267 | 8.7 | 16.5 | 0.00 | 0.00 | 0.00 | 44 | 1011.1 |
| 20260502185004 | 96 | 239 | 5.2 | 14.8 | 0.00 | 0.00 | 0.00 | 44 | 1011.0 |
| 20260502184512 | 95 | 255 | 7.8 | 14.8 | 0.00 | 0.00 | 0.00 | 45 | 1011.0 |
| 20260502184008 | 96 | 222 | 6.1 | 14.8 | 0.00 | 0.00 | 0.00 | 43 | 1011.1 |
| 20260502183507 | 96 | 242 | 7.8 | 13.9 | 0.00 | 0.00 | 0.00 | 43 | 1011.1 |
| 20260502183020 | 95 | 182 | 6.1 | 13.9 | 0.00 | 0.00 | 0.00 | 43 | 1011.2 |
| 20260502182508 | 96 | 234 | 5.2 | 15.6 | 0.00 | 0.00 | 0.00 | 43 | 1011.3 |
| 20260502182009 | 96 | 215 | 7.8 | 16.5 | 0.00 | 0.00 | 0.00 | 42 | 1011.3 |
| 20260502181504 | 96 | 230 | 7.8 | 16.5 | 0.00 | 0.00 | 0.00 | 42 | 1011.3 |
| 20260502181005 | 95 | 247 | 6.1 | 16.5 | 0.00 | 0.00 | 0.00 | 44 | 1011.3 |
| 20260502180503 | 95 | 231 | 10.4 | 16.5 | 0.00 | 0.00 | 0.00 | 42 | 1011.4 |
| 20260502170510 | 91 | 202 | 5.2 | 13.9 | 0.00 | 0.00 | 0.00 | 56 | 1011.6 |
| 20260502164007 | 93 | 229 | 7.0 | 15.6 | 0.00 | 0.00 | 0.00 | 53 | 1011.9 |
| 20260502163507 | 93 | 190 | 2.6 | 15.6 | 0.00 | 0.00 | 0.00 | 55 | 1011.8 |
| 20260502163014 | 93 | 244 | 4.3 | 13.0 | 0.00 | 0.00 | 0.00 | 54 | 1011.9 |
| 20260502162507 | 93 | 181 | 5.2 | 13.0 | 0.00 | 0.00 | 0.00 | 55 | 1011.9 |
| 20260502162012 | 92 | 200 | 5.2 | 13.0 | 0.00 | 0.00 | 0.00 | 56 | 1012.0 |
| 20260502161519 | 92 | 186 | 3.5 | 13.9 | 0.00 | 0.00 | 0.00 | 59 | 1012.0 |
| 20260502161009 | 91 | 180 | 4.3 | 13.9 | 0.00 | 0.00 | 0.00 | 60 | 1012.0 |
| 20260502160509 | 91 | 179 | 5.2 | 11.3 | 0.00 | 0.00 | 0.00 | 60 | 1012.1 |
| 20260502152007 | 89 | 203 | 6.1 | 13.9 | 0.00 | 0.00 | 0.00 | 62 | 1012.4 |
| 20260502151516 | 89 | 167 | 8.7 | 13.9 | 0.00 | 0.00 | 0.00 | 63 | 1012.5 |
| 20260502151007 | 89 | 170 | 6.1 | 10.4 | 0.00 | 0.00 | 0.00 | 64 | 1012.4 |
| 20260502150508 | 88 | 192 | 4.3 | 10.4 | 0.00 | 0.00 | 0.00 | 64 | 1012.4 |
| 20260502130503 | 84 | 180 | 5.2 | 12.2 | 0.00 | 0.00 | 0.00 | 74 | 1011.9 |
| 20260502123513 | 82 | 204 | 2.6 | 9.6 | 0.00 | 0.00 | 0.00 | 79 | 1012.1 |
| 20260502123025 | 82 | 175 | 3.5 | 9.6 | 0.00 | 0.00 | 0.00 | 80 | 1012.0 |
| 20260502122511 | 82 | 178 | 4.3 | 7.8 | 0.00 | 0.00 | 0.00 | 81 | 1011.9 |
| 20260502122011 | 82 | 193 | 3.5 | 7.0 | 0.00 | 0.00 | 0.00 | 82 | 1011.9 |
| 20260502121528 | 81 | 165 | 2.6 | 7.8 | 0.00 | 0.00 | 0.00 | 83 | 1011.9 |
| 20260502121010 | 81 | 165 | 2.6 | 7.8 | 0.00 | 0.00 | 0.00 | 83 | 1011.9 |
| 20260502120507 | 80 | 179 | 1.7 | 5.2 | 0.00 | 0.00 | 0.00 | 84 | 1012.0 |
| 20260502115505 | 79 | 186 | 1.7 | 4.3 | 0.00 | 0.00 | 0.00 | 86 | 1011.8 |
| 20260502115007 | 79 | 188 | 0.9 | 3.5 | 0.00 | 0.00 | 0.00 | 86 | 1011.8 |
| 20260502114521 | 78 | 188 | 0.9 | 2.6 | 0.00 | 0.00 | 0.00 | 86 | 1011.8 |
| 20260502114008 | 78 | 188 | 0.9 | 2.6 | 0.00 | 0.00 | 0.00 | 86 | 1011.9 |
| 20260502113508 | 77 | 188 | 0.0 | 1.7 | 0.00 | 0.00 | 0.00 | 86 | 1011.8 |
| 20260502113022 | 77 | 188 | 0.0 | 1.7 | 0.00 | 0.00 | 0.00 | 86 | 1011.9 |
| 20260502112507 | 77 | 186 | 0.0 | 0.9 | 0.00 | 0.00 | 0.00 | 86 | 1011.9 |
| 20260502112012 | 76 | 186 | 0.0 | 0.9 | 0.00 | 0.00 | 0.00 | 86 | 1011.9 |
| 20260502111524 | 76 | 186 | 0.0 | 0.9 | 0.00 | 0.00 | 0.00 | 86 | 1011.9 |
| 20260502111007 | 76 | 186 | 0.0 | 0.0 | 0.00 | 0.00 | 0.00 | 85 | 1011.9 |
| 20260502110507 | 76 | 186 | 0.0 | 0.9 | 0.00 | 0.00 | 0.00 | 85 | 1011.9 |
| 20260502110026 | 76 | 186 | 0.0 | 0.9 | 0.00 | 0.00 | 0.00 | 85 | 1011.9 |
| 20260502105512 | 76 | 186 | 0.0 | 0.9 | 0.00 | 0.00 | 0.00 | 85 | 1011.9 |
| 20260502105010 | 76 | 121 | 0.0 | 0.0 | 0.00 | 0.00 | 0.00 | 84 | 1011.9 |
| 20260502104535 | 76 | 121 | 0.0 | 0.9 | 0.00 | 0.00 | 0.00 | 84 | 1011.9 |
| 20260502104008 | 76 | 121 | 0.0 | 0.9 | 0.00 | 0.00 | 0.00 | 84 | 1011.8 |
| 20260502103508 | 76 | 121 | 0.0 | 0.0 | 0.00 | 0.00 | 0.00 | 84 | 1011.8 |
| 20260502103022 | 76 | 170 | 0.0 | 0.9 | 0.00 | 0.00 | 0.00 | 84 | 1011.8 |
| 20260502102509 | 76 | 170 | 0.0 | 0.9 | 0.00 | 0.00 | 0.00 | 84 | 1011.7 |
| 20260502102009 | 76 | 170 | 0.0 | 0.9 | 0.00 | 0.00 | 0.00 | 84 | 1011.8 |
| 20260502101523 | 76 | 170 | 0.0 | 0.9 | 0.00 | 0.00 | 0.00 | 84 | 1011.9 |
| 20260502101009 | 76 | 170 | 0.0 | 0.9 | 0.00 | 0.00 | 0.00 | 84 | 1011.9 |
| 20260502100509 | 76 | 170 | 0.0 | 0.9 | 0.00 | 0.00 | 0.00 | 84 | 1012.0 |
| 20260502091527 | 76 | 170 | 0.0 | 1.7 | 0.00 | 0.00 | 0.00 | 85 | 1011.8 |
| 20260502091010 | 76 | 170 | 0.0 | 3.5 | 0.00 | 0.00 | 0.00 | 85 | 1011.8 |
| 20260502090509 | 76 | 170 | 0.0 | 3.5 | 0.00 | 0.00 | 0.00 | 85 | 1011.9 |
| 20260502071512 | 77 | 170 | 0.0 | 0.0 | 0.00 | 0.00 | 0.00 | 86 | 1011.9 |
| 20260502071004 | 77 | 170 | 0.0 | 0.0 | 0.00 | 0.00 | 0.00 | 85 | 1011.7 |
| 20260502070507 | 77 | 170 | 0.0 | 0.0 | 0.00 | 0.00 | 0.00 | 85 | 1011.7 |
| 20260502070004 | 77 | 170 | 0.0 | 0.0 | 0.00 | 0.00 | 0.00 | 85 | 1011.7 |
| 20260502065504 | 77 | 170 | 0.0 | 0.0 | 0.00 | 0.00 | 0.00 | 86 | 1011.8 |
| 20260502065003 | 77 | 170 | 0.0 | 0.0 | 0.00 | 0.00 | 0.00 | 85 | 1011.8 |
| 20260502064507 | 77 | 170 | 0.0 | 0.0 | 0.00 | 0.00 | 0.00 | 85 | 1011.9 |
| 20260502064003 | 77 | 170 | 0.0 | 0.0 | 0.00 | 0.00 | 0.00 | 85 | 1011.9 |
| 20260502063504 | 77 | 170 | 0.0 | 0.0 | 0.00 | 0.00 | 0.00 | 85 | 1011.9 |
| 20260502063012 | 77 | 170 | 0.0 | 0.0 | 0.00 | 0.00 | 0.00 | 85 | 1011.9 |
| 20260502062507 | 77 | 170 | 0.0 | 0.0 | 0.00 | 0.00 | 0.00 | 84 | 1012.0 |
| 20260502062006 | 78 | 170 | 0.0 | 0.0 | 0.00 | 0.00 | 0.00 | 84 | 1012.0 |
| 20260502061525 | 78 | 170 | 0.0 | 1.7 | 0.00 | 0.00 | 0.00 | 84 | 1012.0 |
| 20260502061006 | 78 | 170 | 0.0 | 1.7 | 0.00 | 0.00 | 0.00 | 84 | 1012.0 |
| 20260502060507 | 78 | 170 | 0.0 | 1.7 | 0.00 | 0.00 | 0.00 | 84 | 1012.0 |
| 20260502060015 | 78 | 170 | 0.0 | 1.7 | 0.00 | 0.00 | 0.00 | 84 | 1012.0 |
| 20260502055506 | 78 | 170 | 0.0 | 3.5 | 0.00 | 0.00 | 0.00 | 84 | 1011.9 |
| 20260502055007 | 78 | 170 | 0.0 | 3.5 | 0.00 | 0.00 | 0.00 | 84 | 1011.9 |
| 20260502054503 | 78 | 170 | 0.0 | 3.5 | 0.00 | 0.00 | 0.00 | 84 | 1011.9 |
| 20260502054003 | 78 | 170 | 0.9 | 3.5 | 0.00 | 0.00 | 0.00 | 84 | 1011.9 |
| 20260502053503 | 78 | 170 | 0.9 | 3.5 | 0.00 | 0.00 | 0.00 | 84 | 1011.9 |